Vertical_Velocity
-1 -3 -1 1 2 -1 -1 -3 -2 -3 -5 -3 -7 -8 -4 -1 -4 0 0 1 -4 4 -1 4 4 8 1 11 6 6 -5 -5 6 -15 12 16 -1 5 -5 -6 1 -16 -2 12 1
-3 -2 -2 -4 -3 -4 -2 -5 -1 -2 2 -4 -2 -6 -4 -2 -8 1 3 0 1 1 1 -1 4 2 -1 5 6 -8 -0 2 5 8 7 12 8 14 5 -2 -10 -6 -14 -1 2
1 2 0 -1 -1 2 -1 -2 -2 -3 -4 -2 -5 -5 -5 0 -1 1 4 0 2 1 3 1 5 -2 -2 9 2 1 -12 18 6 7 19 -1 -5 8 1 -4 1 4 5 4 2
-1 -1 1 -2 -3 -1 -1 -3 -4 -4 -4 -4 -5 -4 -4 -2 -7 -3 2 -2 2 -2 -1 -1 1 1 7 -5 -1 -13 3 1 13 3 4 -2 -4 9 -6 6 2 14 10 6 11
-1 -2 -1 -1 -1 -6 -4 -2 -2 -5 -2 -5 -6 -5 2 -3 2 -1 -5 -0 0 1 4 -2 -0 -3 -0 3 6 4 1 -1 18 14 16 57 -4 6 1 13 -12 3 -5 1 -3
-2 -3 -1 0 -2 -6 -6 -2 -6 -4 -4 -8 -5 -3 -0 -4 1 -1 -2 4 1 2 -0 -1 -0 -2 1 5 -4 -6 1 5 7 6 -6 -9 14 8 16 9 -10 2 4 1 1
0 -1 0 -0 -2 -1 -7 -4 -4 -6 -2 -4 -3 -5 -3 -3 -0 3 -1 2 -0 2 -1 3 -3 -1 3 6 -0 10 -1 3 -6 3 -0 9 -4 -32 27 -2 -2 -2 -2 2 -0
-1 -1 -3 1 0 -4 -1 -6 -6 -8 -6 -7 -7 -3 -6 -5 -4 -3 -3 -4 2 2 -1 0 1 -2 1 3 -2 -1 -2 -6 13 6 9 8 -3 15 34 5 33 5 0 1 5
-3 -1 -2 -2 1 -3 -1 -3 -1 -11 -9 -4 -1 -2 1 -1 -3 -3 1 -1 0 1 1 2 2 -2 -2 4 -3 -2 -5 0 4 3 1 -5 4 11 5 -0 25 -8 2 2 0
-3 -3 -2 -4 -4 -1 -2 -5 1 -11 1 1 -4 -0 -2 -1 -1 -4 -3 -1 -1 0 2 3 1 1 -1 -4 -6 4 1 -5 4 5 -1 -5 2 22 5 3 4 7 9 3 -7
-3 -2 -2 -5 -6 -0 -3 13 39 31 3 -5 -7 2 -0 -8 2 -4 -1 -2 -2 -1 -0 1 4 2 -3 -7 8 1 -6 -13 -0 1 -3 8 13 8 -2 12 2 -1 3 2 6
-2 -4 -3 -4 -6 -4 -3 -10 -16 -21 -12 -5 -4 -2 -1 1 -1 -2 -2 -2 -1 -1 -2 1 3 -3 -3 -4 1 -5 -1 0 -4 9 -16 11 5 2 5 8 8 9 -1 -2 8
-3 -0 -5 -1 -6 -9 -11 -9 -8 -8 0 -1 -1 1 1 -4 2 -1 -0 -2 -0 -2 -3 -0 -3 -0 -0 -3 -3 -0 -3 0 6 6 -8 2 -8 -3 3 -1 -5 -7 16 -7 11
-2 -3 -0 -3 0 0 -8 -5 -1 -9 -4 -3 -4 -1 1 -7 0 -4 -1 -2 -3 -0 -2 -2 -1 -1 1 1 -3 -1 -5 4 9 -1 -5 -1 -4 -11 -6 -5 -2 -4 28 0 51
-4 -3 -5 -15 -1 -6 2 -2 -0 -10 -2 -2 3 -2 -3 0 1 -2 -2 0 -2 -2 -1 1 -1 -2 -2 4 4 4 -2 1 0 -3 3 3 -8 1 2 -12 -9 -1 7 -3 -2
-6 -3 -2 3 -14 -12 -13 -12 -2 -8 -5 3 -8 -4 3 -0 1 -2 -1 -0 -1 -5 -1 -2 -1 0 -4 1 -7 1 -1 3 4 -0 13 1 -11 7 -37 16 21 10 -9 -2 4
-5 -5 -7 -7 -6 1 -1 -3 -3 3 -5 2 0 -2 7 -1 -2 2 -1 -2 0 5 2 0 0 -1 -1 3 -3 1 6 0 6 6 4 12 -3 -10 4 -7 7 13 -13 0 -3
-1 -4 -5 -8 -2 -7 -2 -3 4 -8 -2 -1 -3 -6 -6 6 -2 0 -3 -7 -3 -2 0 2 1 1 -2 0 0 9 1 1 -6 -11 -0 9 -14 -2 9 2 4 1 8 5 -4
-3 -1 0 -4 -3 -7 -4 -3 3 -3 -5 -1 -1 -1 -1 -5 1 0 -1 -4 -0 -3 -2 2 -2 3 0 0 -0 -4 -11 12 -0 0 4 -3 7 14 -5 -4 -1 4 -18 1 -2
-1 -4 -4 -1 -5 -6 -6 -2 -1 -2 -2 -3 -2 -6 1 1 -2 1 -0 -3 -1 -3 -2 -2 1 0 8 -1 -1 -1 8 4 2 1 -5 -7 4 11 6 7 6 -7 -5 5 5
-1 -6 -6 -5 -5 -6 3 -3 -2 -3 -2 -4 -1 1 -5 -0 -2 -1 1 -1 1 -5 -1 -2 -1 -3 -2 -3 1 1 -8 -12 -1 9 -4 9 -6 -5 4 -3 -4 -3 -0 2 1
2 -1 1 -2 -6 -6 -5 -1 -3 -4 -4 -5 -3 0 -5 2 -1 -1 -2 -1 -1 -1 0 -1 1 0 7 7 -1 -4 6 1 1 -6 2 -3 -4 -2 3 -6 4 -0 -5 -17 -9
-1 -1 -3 -4 -0 -3 -6 -4 -4 -2 -2 -2 -5 2 -1 -3 3 -1 -0 -1 -1 -1 -2 -3 -1 0 8 3 1 4 7 0 -6 14 6 -1 -14 -3 2 -2 -6 -4 2 -13 0
-8 -9 -8 -3 -6 -4 -0 1 -5 -2 -2 -3 -4 -2 2 -4 -8 4 1 -1 2 -4 1 -3 -2 -1 -1 6 1 4 4 1 3 12 9 15 9 1 -3 0 -5 -7 5 4 1
-1 -9 2 1 1 -4 -5 -5 -2 0 -5 -0 -5 -8 -1 3 -3 -4 3 -1 0 -4 1 -2 -1 -0 -3 -1 2 3 5 9 7 4 -4 17 22 5 2 7 8 4 -1 -2 -1
-5 -4 -7 -5 -5 -5 -5 -4 -1 -5 -4 -2 -4 -4 -1 -2 -1 -2 -1 2 -2 2 -1 -0 -1 -0 -2 -1 1 5 4 2 8 -7 7 12 0 -3 -0 -0 -2 -6 4 8 1
-3 -5 -0 -1 -3 -3 -5 -3 -1 -1 -6 -3 -2 -1 -4 -2 -3 -2 -2 0 1 0 1 -1 -0 0 -2 -3 2 -4 2 -2 -6 -13 -1 -3 6 -2 -1 -1 5 -4 0 10 3
Height
5799 5792 5785 5777 5769 5760 5751 5742 5731 5720 5707 5693 5681 5668 5650 5633 5620 5613 5605 5604 5601 5601 5602 5603 5608 5612 5615 5626 5637 5645 5649 5658 5669 5682 5701 5704 5711 5721 5727 5732 5739 5747 5763 5775 5780
5792 5786 5778 5770 5761 5752 5742 5733 5721 5709 5695 5682 5667 5652 5635 5619 5607 5602 5596 5593 5591 5592 5593 5594 5598 5600 5607 5617 5625 5631 5642 5653 5665 5679 5685 5697 5704 5713 5719 5724 5732 5745 5758 5766 5774
5786 5778 5771 5763 5753 5743 5734 5724 5712 5698 5684 5669 5655 5637 5620 5605 5596 5590 5586 5583 5580 5582 5584 5587 5589 5592 5600 5605 5614 5624 5636 5646 5657 5667 5674 5681 5693 5700 5711 5720 5730 5741 5751 5759 5767
5779 5771 5763 5754 5745 5735 5726 5713 5701 5688 5673 5659 5643 5626 5608 5594 5587 5579 5576 5574 5571 5572 5574 5579 5582 5585 5593 5600 5610 5618 5629 5636 5650 5657 5666 5677 5686 5693 5703 5716 5720 5731 5739 5746 5757
5772 5764 5755 5746 5737 5727 5717 5705 5692 5678 5662 5649 5630 5614 5596 5584 5576 5568 5566 5565 5563 5564 5567 5571 5574 5577 5584 5593 5601 5610 5619 5628 5638 5647 5658 5664 5677 5685 5696 5705 5711 5724 5731 5737 5745
5765 5756 5748 5739 5730 5720 5709 5697 5683 5668 5653 5637 5617 5602 5585 5575 5566 5562 5558 5556 5554 5555 5559 5563 5568 5574 5579 5586 5591 5602 5611 5621 5628 5635 5645 5655 5667 5674 5688 5692 5704 5712 5721 5727 5736
5758 5749 5741 5732 5722 5711 5701 5688 5674 5658 5641 5622 5605 5589 5576 5568 5559 5554 5549 5546 5544 5546 5550 5555 5560 5566 5574 5578 5586 5597 5604 5612 5622 5633 5640 5648 5653 5672 5678 5688 5695 5703 5714 5722 5730
5750 5742 5733 5725 5716 5705 5694 5679 5664 5645 5628 5609 5594 5579 5569 5558 5552 5547 5542 5536 5535 5536 5541 5547 5552 5560 5566 5573 5580 5587 5595 5605 5618 5622 5633 5639 5654 5667 5672 5678 5687 5694 5707 5716 5725
5744 5735 5727 5718 5708 5698 5686 5670 5650 5633 5613 5598 5582 5565 5562 5551 5545 5540 5534 5529 5527 5529 5532 5539 5544 5552 5560 5566 5572 5578 5589 5599 5610 5620 5623 5632 5643 5656 5661 5672 5680 5687 5699 5707 5718
5737 5728 5720 5710 5702 5692 5678 5662 5646 5621 5606 5588 5570 5561 5552 5547 5541 5535 5530 5525 5523 5523 5525 5531 5536 5544 5552 5557 5571 5580 5587 5596 5607 5618 5622 5630 5637 5646 5655 5667 5674 5682 5690 5699 5710
5730 5721 5713 5703 5694 5684 5673 5662 5648 5624 5600 5581 5566 5557 5549 5544 5539 5532 5528 5524 5521 5519 5520 5524 5529 5536 5545 5553 5560 5568 5577 5590 5597 5604 5613 5626 5632 5638 5647 5656 5665 5675 5684 5694 5702
5724 5715 5705 5695 5685 5675 5661 5643 5625 5613 5593 5574 5559 5552 5549 5542 5534 5531 5529 5526 5522 5519 5517 5521 5524 5528 5538 5546 5554 5563 5572 5585 5594 5602 5604 5611 5622 5631 5638 5648 5657 5668 5677 5687 5697
5717 5708 5698 5689 5676 5664 5650 5633 5616 5599 5584 5567 5557 5550 5545 5540 5534 5531 5529 5524 5520 5519 5518 5518 5519 5523 5531 5539 5548 5557 5567 5579 5589 5592 5597 5605 5609 5619 5630 5636 5647 5658 5669 5679 5687
5710 5701 5693 5683 5672 5656 5640 5624 5605 5586 5575 5563 5553 5547 5541 5537 5533 5529 5528 5526 5522 5520 5518 5518 5518 5520 5526 5533 5542 5551 5561 5571 5581 5585 5594 5599 5606 5615 5624 5632 5642 5655 5663 5674 5681
5704 5694 5685 5674 5663 5650 5636 5618 5598 5580 5569 5555 5549 5543 5540 5537 5533 5530 5529 5526 5524 5521 5519 5519 5517 5518 5521 5530 5538 5548 5556 5566 5575 5582 5589 5596 5601 5616 5618 5627 5643 5653 5661 5668 5676
5697 5687 5678 5668 5652 5642 5629 5609 5594 5576 5564 5552 5544 5542 5540 5535 5532 5529 5528 5526 5525 5522 5519 5517 5516 5515 5516 5523 5532 5543 5553 5562 5571 5580 5587 5591 5598 5606 5619 5640 5642 5646 5649 5659 5667
5691 5681 5672 5662 5651 5638 5619 5602 5586 5572 5552 5550 5545 5542 5540 5535 5531 5529 5528 5527 5524 5523 5520 5519 5516 5513 5514 5521 5529 5539 5549 5558 5566 5571 5575 5586 5592 5609 5613 5622 5632 5641 5643 5653 5663
5686 5676 5666 5657 5644 5629 5613 5595 5579 5560 5549 5543 5542 5540 5538 5535 5530 5528 5526 5525 5525 5523 5521 5519 5518 5515 5514 5517 5526 5538 5546 5555 5560 5568 5575 5583 5592 5602 5609 5615 5623 5629 5635 5643 5655
5681 5672 5662 5650 5637 5621 5606 5589 5575 5559 5549 5545 5541 5539 5537 5532 5529 5526 5525 5526 5525 5523 5522 5520 5518 5517 5516 5516 5522 5532 5542 5553 5559 5564 5573 5581 5588 5595 5602 5611 5620 5626 5635 5648 5657
5675 5666 5657 5645 5630 5615 5600 5584 5567 5554 5546 5542 5540 5539 5536 5532 5528 5524 5523 5524 5525 5523 5521 5520 5519 5517 5516 5515 5519 5530 5540 5548 5556 5563 5571 5578 5585 5593 5600 5608 5616 5625 5632 5642 5649
5670 5659 5650 5638 5625 5611 5596 5578 5562 5552 5545 5543 5539 5537 5534 5530 5526 5522 5521 5522 5523 5522 5522 5521 5520 5519 5517 5517 5518 5525 5534 5544 5554 5561 5569 5575 5581 5592 5594 5601 5610 5618 5627 5635 5647
5665 5656 5645 5633 5620 5606 5590 5574 5559 5550 5545 5542 5539 5535 5531 5528 5524 5520 5518 5518 5521 5522 5522 5522 5520 5519 5519 5517 5517 5521 5532 5543 5554 5562 5566 5571 5578 5587 5592 5600 5607 5613 5622 5631 5642
5661 5652 5640 5628 5613 5598 5581 5566 5557 5550 5545 5541 5539 5535 5530 5525 5523 5517 5514 5514 5517 5519 5520 5521 5521 5520 5519 5520 5519 5522 5531 5541 5552 5560 5565 5569 5574 5584 5591 5597 5605 5613 5621 5628 5638
5655 5644 5635 5623 5608 5594 5578 5564 5553 5549 5545 5540 5537 5532 5529 5522 5516 5515 5511 5509 5512 5516 5518 5520 5520 5520 5520 5520 5520 5521 5528 5537 5547 5555 5559 5566 5571 5579 5588 5595 5602 5610 5617 5624 5634
5649 5639 5630 5616 5601 5588 5573 5561 5554 5550 5544 5540 5534 5529 5525 5522 5514 5508 5507 5505 5508 5512 5516 5518 5518 5519 5519 5519 5520 5522 5526 5533 5541 5548 5554 5559 5570 5576 5584 5592 5599 5606 5612 5620 5628
5643 5634 5622 5608 5595 5583 5569 5559 5551 5548 5545 5538 5533 5528 5521 5515 5510 5504 5502 5502 5504 5510 5513 5516 5517 5518 5518 5518 5520 5523 5524 5530 5535 5544 5551 5557 5565 5573 5581 5588 5595 5601 5608 5616 5622
5636 5628 5617 5605 5592 5579 5567 5558 5553 5549 5543 5537 5532 5526 5519 5512 5506 5502 5499 5501 5503 5507 5510 5514 5516 5517 5516 5516 5518 5522 5522 5527 5535 5542 5550 5557 5565 5572 5579 5585 5592 5598 5604 5612 5619